EW0811 Weather Reports


Display with metric or nautical units.
time (UTC)temp
F
wind
direction
speed
MPH
gust
MPH
rain 1hr
in
rain 24hr
in
rain mn
in
humidity
%
barometer
mb
20260507114617 40 0.0 0.0 0.00 0.19 0.00 97 1013.0
20260507113615 40 0.0 0.0 0.00 0.19 0.00 98 1013.0
20260507112615 40 0.0 2.0 0.00 0.19 0.00 98 1012.8
20260507111617 39 338 1.0 2.0 0.00 0.19 0.00 99 1012.8
20260507110615 39 0.0 0.0 0.00 0.19 0.00 98 1012.6
20260507105615 38 0.0 1.0 0.00 0.22 0.00 98 1012.4
20260507104635 38 0.0 1.0 0.00 0.22 0.00 98 1012.3
20260507103615 38 248 1.0 2.0 0.00 0.22 0.00 97 1012.1
20260507102635 38 0.0 0.0 0.00 0.22 0.00 98 1012.0
20260507101617 38 0.0 1.0 0.00 0.22 0.00 98 1011.9
20260507100615 38 0.0 0.0 0.00 0.22 0.00 97 1012.2
20260507095615 38 0.0 0.0 0.00 0.27 0.00 97 1012.3
20260507094617 39 0.0 0.0 0.00 0.27 0.00 97 1012.3
20260507093615 39 0.0 0.0 0.00 0.27 0.00 98 1012.2
20260507092615 39 0.0 0.0 0.00 0.27 0.00 98 1012.2
20260507091615 39 0.0 0.0 0.00 0.27 0.00 98 1012.2
20260507090635 39 0.0 0.0 0.00 0.27 0.00 98 1012.2
20260507085615 39 0.0 0.0 0.00 0.33 0.00 98 1012.3
20260507084615 39 0.0 0.0 0.00 0.33 0.00 98 1012.2
20260507083615 39 0.0 0.0 0.00 0.33 0.00 98 1012.3
20260507082615 39 0.0 0.0 0.00 0.33 0.00 97 1012.4
20260507081615 39 0.0 0.0 0.00 0.33 0.00 98 1012.4
20260507080617 39 0.0 0.0 0.00 0.33 0.00 97 1012.4
20260507075615 39 0.0 0.0 0.00 0.41 0.00 98 1012.1
20260507074615 39 0.0 0.0 0.00 0.41 0.00 98 1012.1
20260507073615 39 0.0 1.0 0.00 0.41 0.00 98 1012.0
20260507072615 39 0.0 0.0 0.00 0.41 0.00 98 1012.2
20260507071615 38 0.0 0.0 0.00 0.41 0.00 98 1012.2
20260507070657 38 0.0 0.0 0.00 0.41 0.00 97 1012.2
20260507065615 38 0.0 1.0 0.00 0.45 0.00 96 1012.2
20260507064635 38 0.0 0.0 0.00 0.45 0.00 96 1012.4
20260507063615 39 0.0 0.0 0.00 0.45 0.00 96 1012.4
20260507062615 39 0.0 0.0 0.00 0.45 0.00 96 1012.5
20260507061615 40 0.0 0.0 0.00 0.45 0.00 97 1012.5
20260507060615 40 0.0 0.0 0.00 0.45 0.00 97 1012.5
20260507055636 40 0.0 0.0 0.00 0.51 0.00 97 1012.5
20260507054617 40 0.0 0.0 0.00 0.51 0.00 97 1012.6
20260507053617 40 0.0 0.0 0.00 0.51 0.00 97 1012.5
20260507052617 40 0.0 0.0 0.00 0.51 0.00 97 1012.4
20260507051617 41 0.0 1.0 0.00 0.51 0.00 97 1012.8
20260507050618 40 0.0 0.0 0.00 0.51 0.00 97 1012.7
20260507045637 41 248 1.0 1.0 0.00 0.53 0.00 97 1012.8
20260507044617 41 0.0 0.0 0.00 0.53 0.00 97 1012.9
20260507043617 41 0.0 1.0 0.00 0.53 0.00 97 1013.0
20260507042617 41 0.0 0.0 0.00 0.53 0.00 97 1013.0
20260507041617 41 0.0 0.0 0.00 0.53 0.00 97 1012.9
20260507040618 41 0.0 0.0 0.00 0.53 0.00 96 1012.8
20260507035638 41 0.0 0.0 0.00 0.57 0.53 97 1012.8
20260507034618 41 0.0 0.0 0.00 0.57 0.53 97 1012.8
20260507033617 42 0.0 0.0 0.00 0.57 0.53 97 1012.8
20260507032617 42 0.0 1.0 0.00 0.57 0.53 97 1012.8
20260507031657 42 0.0 0.0 0.00 0.57 0.53 96 1012.8
20260507030617 42 0.0 1.0 0.00 0.57 0.53 96 1012.8
20260507025616 42 0.0 0.0 0.00 0.63 0.53 97 1012.8
20260507024618 42 0.0 0.0 0.00 0.63 0.53 97 1012.7
20260507023640 42 248 1.0 2.0 0.00 0.63 0.53 97 1012.7
20260507022616 42 248 1.0 2.0 0.00 0.63 0.53 97 1012.6
20260507021617 42 248 1.0 2.0 0.00 0.63 0.53 97 1012.7
20260507020616 42 203 1.0 2.0 0.00 0.63 0.53 97 1012.8
20260507015617 42 203 1.0 2.0 0.00 0.67 0.53 97 1012.9
20260507014618 42 203 1.0 2.0 0.00 0.67 0.53 96 1012.9
20260507013616 42 203 1.0 2.0 0.00 0.67 0.53 96 1012.8
20260507012616 42 0.0 0.0 0.00 0.67 0.53 96 1012.6
20260507011617 42 203 1.0 2.0 0.00 0.67 0.53 96 1012.5
20260507010617 42 0.0 0.0 0.00 0.67 0.53 96 1012.4
20260507005616 43 0.0 0.0 0.00 0.81 0.53 96 1012.3
20260507004617 43 0.0 1.0 0.00 0.81 0.53 96 1012.2
20260507003638 43 0.0 1.0 0.00 0.81 0.53 96 1012.2
20260507002617 43 0.0 1.0 0.00 0.81 0.53 96 1012.1
20260507001616 43 0.0 1.0 0.00 0.81 0.53 95 1012.1
20260507000616 43 203 1.0 1.0 0.00 0.81 0.53 95 1012.1
20260506235616 43 0.0 0.0 0.00 0.88 0.53 95 1011.9
20260506234616 44 203 1.0 1.0 0.00 0.88 0.53 96 1011.9
20260506233618 44 293 1.0 3.0 0.00 0.88 0.53 96 1012.0
20260506232616 44 315 1.0 1.0 0.00 0.88 0.53 96 1011.9
20260506231616 44 0 3.0 5.0 0.00 0.88 0.53 96 1011.7
20260506230616 44 0 3.0 5.0 0.00 0.88 0.53 96 1011.6
20260506225616 44 338 2.0 4.0 0.01 1.00 0.53 96 1011.4
20260506224618 44 338 1.0 5.0 0.01 1.00 0.53 95 1011.3
20260506223616 44 338 2.0 3.0 0.01 1.00 0.53 96 1011.2
20260506222616 43 338 1.0 3.0 0.01 1.00 0.53 95 1011.2
20260506221618 43 293 2.0 4.0 0.02 1.00 0.53 95 1010.9
20260506220616 43 338 2.0 4.0 0.03 1.00 0.53 94 1011.2
20260506215616 44 315 2.0 4.0 0.04 1.12 0.52 93 1011.0
20260506214616 45 293 2.0 4.0 0.07 1.12 0.52 93 1010.7
20260506213616 46 338 2.0 4.0 0.09 1.12 0.52 93 1010.5
20260506212636 47 338 3.0 4.0 0.11 1.12 0.52 91 1010.2
20260506211636 48 338 2.0 6.0 0.10 1.11 0.51 92 1009.9
20260506210618 50 0 4.0 8.0 0.09 1.10 0.50 92 1009.8
20260506205638 50 0.0 0.0 0.07 1.10 0.48 92 1009.6
20260506204638 50 0.0 0.0 0.04 1.07 0.45 91 1009.6
20260506203638 50 0.0 1.0 0.02 1.05 0.43 88 1009.6
20260506202636 51 158 1.0 2.0 0.00 1.03 0.41 85 1009.4
20260506201636 52 158 1.0 1.0 0.00 1.03 0.41 84 1009.5
20260506200616 53 113 3.0 5.0 0.00 1.03 0.41 81 1009.5
20260506195616 53 158 3.0 4.0 0.00 1.03 0.41 83 1009.5
20260506194636 52 113 2.0 2.0 0.00 1.03 0.41 85 1009.7
20260506193636 52 113 1.0 2.0 0.00 1.03 0.41 84 1009.6
20260506192616 52 0.0 1.0 0.00 1.03 0.41 82 1009.6
20260506191616 52 0.0 1.0 0.00 1.03 0.41 84 1009.7
20260506190616 52 0.0 0.0 0.00 1.03 0.41 81 1009.6
20260506185616 52 68 2.0 3.0 0.00 1.03 0.41 81 1009.6
20260506184638 53 90 3.0 5.0 0.00 1.03 0.41 83 1009.6
20260506183616 53 135 3.0 5.0 0.00 1.03 0.41 85 1009.6
20260506182616 52 113 1.0 4.0 0.00 1.03 0.41 86 1009.9
20260506181617 50 90 1.0 2.0 0.00 1.03 0.41 87 1009.8
20260506180616 50 45 1.0 2.0 0.00 1.03 0.41 89 1009.9
20260506175656 50 0.0 1.0 0.00 1.03 0.41 88 1009.8
20260506174617 50 0.0 1.0 0.00 1.03 0.41 88 1010.0
20260506173616 50 45 1.0 2.0 0.00 1.03 0.41 88 1010.1
20260506172658 50 0.0 0.0 0.00 1.03 0.41 86 1009.8
20260506171616 50 45 1.0 3.0 0.00 1.03 0.41 90 1009.8
20260506170616 49 45 2.0 3.0 0.00 1.03 0.41 91 1009.8
20260506165617 49 45 1.0 2.0 0.00 1.03 0.41 90 1009.7
20260506164616 49 90 2.0 3.0 0.00 1.03 0.41 91 1009.7
20260506163616 49 68 1.0 1.0 0.00 1.03 0.41 91 1009.7
20260506162616 49 68 2.0 2.0 0.00 1.03 0.41 91 1009.9
20260506161616 49 68 2.0 3.0 0.00 1.03 0.41 91 1009.8
20260506160620 49 45 1.0 3.0 0.00 1.03 0.41 93 1009.7
20260506155616 49 68 2.0 5.0 0.00 1.03 0.41 91 1009.6
20260506154616 49 45 2.0 4.0 0.00 1.03 0.41 93 1009.7
20260506153616 49 90 2.0 2.0 0.00 1.03 0.41 94 1009.7
20260506152616 49 68 2.0 4.0 0.01 1.03 0.41 95 1009.4
20260506151637 48 68 3.0 5.0 0.01 1.03 0.41 95 1009.4
20260506150616 48 45 2.0 2.0 0.02 1.03 0.41 96 1009.5
20260506145635 48 45 2.0 3.0 0.02 1.03 0.41 97 1009.4
20260506144617 47 68 2.0 4.0 0.02 1.03 0.41 97 1009.3
20260506143636 47 45 2.0 4.0 0.02 1.03 0.41 96 1009.3
20260506142616 47 0.0 1.0 0.01 1.02 0.40 96 1009.5
20260506141615 46 45 1.0 1.0 0.01 1.02 0.40 96 1009.4
20260506140656 46 45 2.0 3.0 0.00 1.01 0.39 97 1009.3
20260506135616 46 68 1.0 2.0 0.00 1.01 0.39 96 1009.2
20260506134616 46 68 2.0 3.0 0.01 1.01 0.39 97 1009.2
20260506133615 46 68 1.0 4.0 0.01 1.01 0.39 97 1009.0
20260506132615 46 0.0 0.0 0.01 1.01 0.39 97 1009.0
20260506131615 45 68 1.0 2.0 0.02 1.01 0.39 97 1008.8
20260506130617 45 23 2.0 3.0 0.02 1.01 0.39 97 1009.0
20260506125617 45 0.0 2.0 0.02 1.01 0.39 97 1008.8
20260506124635 45 68 2.0 3.0 0.01 1.00 0.38 97 1008.6
20260506123635 45 113 1.0 3.0 0.02 1.00 0.38 96 1008.5
20260506122615 44 113 4.0 6.0 0.03 1.00 0.38 96 1008.4
20260506121615 44 113 5.0 7.0 0.02 0.99 0.37 97 1008.2
20260506120615 44 90 1.0 1.0 0.03 0.99 0.37 97 1008.2
20260506115629 44 113 2.0 3.0 0.03 0.99 0.37 97 1008.2